Wind_Speed
14 14 13 13 13 13 12 12 11 10 10 10 10 10 9 9 10 10 9 9 9 9 8 7 7 7 6 5 5 4 4 3 3 3 3 3 4 4 4 5 5 6 6
15 15 14 14 14 14 14 13 12 11 11 10 10 10 10 9 10 10 9 9 9 8 8 7 7 6 5 5 4 3 3 3 2 2 3 3 3 3 3 4 4 5 6
16 16 15 15 15 15 15 14 13 12 12 11 11 11 10 10 10 10 10 9 9 8 8 7 6 6 5 4 3 3 3 2 2 2 2 2 2 2 2 3 4 4 5
18 17 17 16 16 16 16 16 15 14 13 12 12 12 11 11 11 10 10 10 9 9 8 7 6 5 4 4 3 3 3 2 2 1 1 1 1 1 2 2 3 4 4
20 19 18 18 18 17 17 17 16 15 15 14 13 13 12 12 12 11 11 10 10 9 9 8 7 6 5 4 4 3 3 3 2 1 1 0 1 1 1 2 3 4 4
21 20 20 19 19 19 18 18 17 17 16 15 14 14 13 13 13 12 11 11 11 10 10 9 8 8 6 5 5 4 4 3 2 1 1 1 1 2 2 2 3 4 4
23 22 21 21 21 20 20 19 19 18 17 16 16 15 14 14 14 13 12 12 12 11 11 10 9 9 8 7 6 5 5 4 3 3 2 2 2 3 3 3 4 4 4
25 24 23 22 22 22 21 21 20 19 18 18 17 16 16 15 14 14 14 14 13 12 12 11 11 10 9 9 8 7 6 5 5 4 4 4 4 4 4 4 4 5 5
27 26 26 25 24 23 23 22 21 20 19 19 18 18 17 16 15 15 14 14 14 14 13 12 12 11 11 11 10 9 8 7 7 6 6 6 6 6 5 5 5 6 6
28 28 28 27 26 25 25 24 23 22 21 21 20 19 19 18 17 16 15 15 15 15 15 14 13 12 13 12 12 11 10 9 8 8 7 7 7 7 7 7 7 7 8
30 30 29 29 29 28 27 26 25 24 23 23 22 21 21 20 19 18 17 17 16 17 16 15 15 14 14 13 13 13 12 11 10 10 9 9 9 9 9 9 9 9 9
32 32 31 31 31 30 29 28 27 26 25 24 23 23 22 22 21 20 19 18 17 17 18 17 16 15 15 14 14 14 14 13 12 11 11 10 10 10 10 10 10 10 10
35 34 33 33 33 32 31 30 29 28 27 26 25 25 24 23 23 22 21 20 19 19 18 18 17 16 16 16 15 15 15 15 14 13 13 12 12 12 11 11 11 12 12
37 36 36 35 34 34 33 32 30 29 28 27 27 26 26 25 25 24 23 22 21 20 20 19 19 18 17 17 16 16 16 16 16 15 15 14 14 14 13 13 13 14 14
39 39 38 37 36 35 34 33 32 31 30 29 29 29 28 27 26 25 24 24 23 22 21 21 20 20 18 18 18 17 17 17 17 17 17 16 16 16 15 15 15 15 15
42 41 40 39 38 37 36 35 34 33 33 32 30 30 30 29 28 26 26 26 25 24 24 23 22 21 20 19 19 19 18 18 18 18 18 18 18 18 18 18 17 17 17
44 43 43 42 41 40 38 37 36 35 35 34 33 31 30 30 29 28 27 27 26 26 25 24 23 23 22 21 21 21 21 20 20 20 19 19 19 19 19 19 19 19 19
47 46 45 45 44 42 41 40 39 38 37 36 35 34 32 31 31 29 28 28 28 27 26 26 25 24 24 23 23 22 22 22 22 21 21 20 20 20 20 20 20 20 20
49 48 47 47 46 45 44 42 41 40 39 38 37 36 35 34 32 31 30 29 29 29 28 27 27 26 25 25 25 24 24 23 23 23 23 22 22 22 22 22 22 22 22
51 50 50 49 48 47 46 45 44 42 41 40 38 38 37 36 35 34 32 31 30 30 30 29 28 28 27 26 26 26 25 25 24 24 24 24 24 24 24 23 23 23 23
54 53 52 51 50 48 47 46 45 44 44 42 40 39 38 38 37 36 35 33 32 31 31 31 29 29 28 28 27 27 27 26 26 25 25 25 25 25 25 25 25 25 25
55 54 54 52 51 50 49 47 46 46 45 44 43 41 40 39 38 37 36 35 34 33 32 32 32 30 29 29 29 29 28 27 27 27 26 26 26 26 26 25 26 26 26
57 55 54 53 52 52 50 49 48 47 46 45 44 43 42 41 40 39 39 38 37 35 34 34 33 33 31 30 30 30 29 29 29 28 28 28 27 27 26 27 27 27 27
57 56 55 54 54 53 52 51 49 48 47 46 45 44 44 43 42 40 40 39 39 38 36 35 35 35 33 32 31 31 30 30 30 29 29 29 28 27 27 27 27 27 28
57 57 56 56 55 54 53 53 51 50 49 48 47 46 46 44 43 42 41 40 39 39 38 37 37 37 36 34 33 33 32 31 31 31 30 30 29 29 28 28 28 29 28
58 57 57 57 56 55 54 53 53 52 51 51 50 48 47 46 45 44 42 41 41 40 39 39 38 38 38 37 35 34 34 33 32 31 31 31 31 30 30 30 30 30 30
Wind_Direction
206 204 202 200 197 194 191 189 188 187 186 182 178 175 171 169 168 165 161 158 155 150 147 144 138 136 134 133 131 129 123 118 107 99 94 87 78 71 68 66 63 59 56
209 207 205 203 202 199 197 195 194 192 191 190 188 185 181 178 176 174 171 168 166 160 155 154 149 144 138 136 136 136 136 130 116 106 98 85 73 68 65 61 56 51 48
213 211 209 207 206 205 203 201 200 199 198 198 196 194 190 187 185 183 182 177 174 172 170 166 163 158 154 151 147 141 142 144 141 125 107 86 67 58 53 48 45 42 38
215 215 212 211 210 209 207 207 205 204 203 203 203 200 198 195 193 192 192 188 184 184 184 183 180 176 172 172 170 165 159 158 157 151 132 100 49 38 39 32 24 20 19
217 217 215 213 213 212 211 210 210 209 208 208 207 206 204 202 200 199 199 198 196 195 195 196 195 196 193 191 190 187 178 173 173 178 198 242 309 336 354 4 355 351 355
220 219 218 216 215 214 213 213 213 213 212 212 211 210 208 208 206 205 205 206 205 204 204 204 205 206 209 208 204 200 195 190 193 208 238 268 287 300 306 315 326 333 338
222 221 220 219 217 216 215 215 215 215 215 215 215 214 213 212 212 211 210 211 211 212 212 212 211 212 214 215 211 208 208 211 221 237 260 274 285 294 300 305 308 317 324
224 224 223 221 220 218 217 217 216 217 218 218 217 217 215 215 215 215 215 216 216 216 217 217 217 217 218 218 220 221 222 225 233 246 256 264 274 283 289 293 299 305 311
226 225 225 223 222 220 219 219 219 218 218 219 219 219 219 218 219 219 218 220 220 221 221 221 220 220 221 225 227 227 229 234 241 250 257 263 268 272 278 282 290 296 300
228 227 226 225 224 223 222 221 221 221 221 221 221 221 222 222 221 220 220 222 224 223 223 225 226 225 225 228 231 233 235 239 245 251 259 265 268 270 274 278 283 289 296
229 228 227 226 225 225 225 224 223 223 223 223 224 224 223 223 222 222 222 224 225 226 226 226 228 229 229 231 234 237 240 242 246 252 259 264 268 269 273 278 283 288 293
229 229 228 228 227 226 226 226 226 225 225 225 226 225 224 224 224 225 225 226 225 228 228 226 227 231 233 234 236 239 241 243 247 252 258 263 267 270 273 278 282 286 291
228 228 228 228 228 227 227 227 227 227 226 226 227 227 227 227 227 228 228 229 230 229 228 228 228 231 234 236 238 240 242 244 248 253 258 262 266 270 274 277 280 284 289
228 228 228 228 228 229 228 228 228 228 228 228 228 228 228 228 229 230 230 230 230 230 231 232 231 233 236 239 242 244 245 247 250 253 257 262 265 268 271 274 277 281 285
228 228 228 227 228 229 229 229 229 229 228 229 229 229 229 229 230 230 231 231 231 233 234 235 236 236 238 241 243 246 246 249 253 255 257 261 264 268 270 272 276 280 283
228 228 228 228 228 229 230 230 230 230 230 230 230 229 229 230 230 231 232 231 232 234 236 236 237 238 239 241 244 247 248 251 255 257 259 261 264 267 269 271 275 277 280
229 229 228 228 228 229 230 230 230 230 231 231 231 231 230 230 230 232 234 234 234 235 236 237 239 241 241 242 244 247 249 251 254 257 259 261 264 267 269 271 274 276 279
229 229 229 229 229 229 229 230 230 230 231 231 230 230 230 231 231 233 234 235 236 237 237 238 239 241 243 244 246 247 250 252 255 257 259 261 264 267 269 270 273 275 277
230 230 230 230 230 230 230 230 230 231 231 231 230 230 231 232 233 233 235 236 237 237 238 239 240 242 244 246 247 249 251 253 256 258 260 262 264 265 268 269 271 274 275
230 230 230 230 230 231 231 231 231 231 230 231 231 231 231 232 233 234 236 237 238 238 239 240 242 243 245 247 248 249 252 254 256 258 260 263 265 266 267 268 270 272 275
230 230 230 230 230 231 231 231 232 232 232 232 233 233 232 232 233 234 235 237 238 239 240 241 242 244 246 247 248 249 251 254 256 259 262 264 266 267 268 267 269 272 274
229 230 230 230 230 231 231 231 231 232 232 233 233 234 233 233 234 234 235 237 238 240 241 242 243 245 247 248 249 251 251 254 257 260 262 265 266 267 268 268 270 272 273
229 229 229 229 229 230 230 230 230 231 232 233 233 234 234 234 235 236 236 237 239 241 242 243 244 246 247 248 250 251 253 256 259 261 262 264 267 268 268 269 271 272 273
228 228 228 229 229 229 230 230 231 231 232 233 233 234 235 235 237 237 238 238 239 241 242 243 244 246 248 249 250 252 254 257 259 260 262 264 265 267 268 269 271 272 273
228 227 228 228 229 230 230 230 230 230 231 232 233 234 235 236 237 238 239 240 241 242 244 245 246 246 248 249 251 252 255 257 258 260 261 262 264 265 266 268 270 272 272
228 228 228 228 229 229 230 230 231 231 232 232 233 235 235 236 237 238 240 242 243 244 245 246 247 247 248 249 251 252 254 257 257 260 261 261 262 264 266 267 269 271 272
Height
5856 5858 5859 5860 5861 5863 5864 5865 5866 5867 5868 5869 5870 5871 5871 5872 5873 5874 5874 5875 5876 5876 5877 5878 5878 5879 5879 5879 5880 5880 5880 5881 5881 5880 5880 5880 5880 5880 5879 5879 5879 5878 5877
5855 5856 5857 5859 5860 5861 5863 5864 5865 5866 5867 5868 5869 5870 5871 5872 5872 5873 5874 5875 5876 5876 5877 5878 5878 5879 5879 5880 5880 5880 5881 5881 5881 5881 5881 5881 5880 5880 5880 5880 5879 5879 5878
5852 5854 5855 5857 5858 5860 5861 5863 5864 5865 5866 5867 5868 5869 5870 5871 5872 5873 5874 5875 5875 5876 5877 5878 5878 5879 5879 5880 5880 5880 5880 5881 5881 5881 5881 5881 5880 5880 5880 5880 5879 5879 5879
5849 5851 5853 5854 5856 5858 5859 5861 5862 5864 5865 5866 5867 5868 5869 5870 5871 5872 5873 5874 5875 5876 5877 5877 5878 5879 5879 5879 5880 5880 5880 5880 5881 5881 5881 5881 5880 5880 5880 5880 5880 5879 5879
5846 5848 5850 5852 5853 5855 5857 5859 5860 5862 5863 5864 5866 5867 5868 5869 5870 5871 5872 5873 5874 5875 5876 5877 5877 5878 5879 5879 5879 5880 5880 5880 5880 5881 5880 5880 5880 5880 5880 5880 5880 5879 5879
5843 5845 5847 5849 5851 5852 5854 5856 5858 5860 5861 5862 5864 5865 5866 5867 5868 5870 5871 5872 5873 5874 5875 5876 5877 5877 5878 5878 5879 5879 5879 5880 5880 5880 5880 5880 5880 5880 5880 5880 5879 5879 5878
5839 5841 5844 5846 5848 5849 5851 5853 5855 5857 5859 5860 5862 5863 5864 5865 5867 5868 5869 5870 5871 5872 5873 5874 5875 5876 5877 5877 5878 5878 5879 5879 5879 5879 5880 5880 5879 5879 5879 5879 5879 5878 5878
5835 5837 5840 5842 5844 5846 5848 5850 5852 5854 5856 5858 5859 5861 5862 5863 5865 5866 5867 5869 5870 5871 5872 5873 5874 5875 5876 5876 5877 5877 5878 5878 5878 5878 5879 5879 5879 5878 5878 5878 5878 5878 5877
5831 5833 5835 5838 5840 5842 5844 5847 5849 5851 5853 5855 5856 5858 5859 5861 5862 5864 5865 5866 5868 5869 5870 5871 5872 5873 5874 5875 5875 5876 5877 5877 5877 5877 5877 5877 5877 5877 5877 5877 5877 5877 5876
5826 5828 5831 5833 5836 5838 5840 5843 5845 5847 5849 5851 5853 5855 5857 5858 5859 5861 5862 5864 5865 5866 5867 5869 5870 5871 5872 5873 5874 5874 5875 5875 5876 5876 5876 5876 5876 5876 5876 5876 5876 5875 5875
5821 5823 5826 5828 5831 5834 5836 5838 5841 5843 5845 5847 5849 5851 5853 5855 5856 5858 5860 5861 5862 5864 5865 5866 5867 5869 5870 5871 5872 5872 5873 5873 5874 5874 5874 5875 5875 5875 5874 5874 5874 5874 5873
5815 5818 5820 5823 5826 5829 5831 5834 5836 5839 5841 5843 5845 5847 5849 5851 5853 5855 5857 5858 5859 5860 5862 5863 5865 5866 5867 5868 5869 5870 5871 5871 5872 5872 5872 5873 5873 5873 5873 5872 5872 5872 5871
5808 5811 5814 5817 5820 5823 5826 5829 5832 5834 5836 5839 5841 5843 5845 5847 5849 5851 5853 5854 5856 5857 5858 5860 5862 5863 5864 5865 5866 5867 5868 5869 5869 5870 5870 5870 5871 5871 5870 5870 5870 5869 5869
5801 5804 5807 5811 5814 5817 5820 5823 5826 5829 5832 5834 5836 5839 5841 5843 5845 5847 5849 5851 5852 5854 5855 5857 5858 5860 5861 5862 5863 5864 5865 5866 5866 5867 5867 5868 5868 5868 5868 5868 5868 5867 5866
5793 5796 5800 5804 5807 5811 5814 5817 5820 5823 5826 5828 5831 5833 5836 5838 5841 5843 5845 5847 5849 5851 5852 5854 5855 5856 5858 5859 5860 5861 5862 5862 5863 5864 5864 5865 5865 5865 5865 5865 5865 5864 5864
5784 5788 5792 5796 5800 5804 5807 5811 5814 5817 5820 5823 5825 5828 5831 5833 5836 5838 5840 5843 5845 5846 5848 5850 5851 5853 5854 5855 5856 5857 5858 5859 5860 5860 5861 5861 5861 5861 5862 5862 5861 5861 5860
5775 5779 5783 5788 5792 5796 5800 5804 5807 5810 5814 5816 5819 5822 5825 5828 5831 5833 5835 5838 5840 5842 5844 5845 5847 5849 5850 5851 5853 5853 5854 5855 5856 5856 5857 5857 5858 5858 5858 5858 5858 5857 5857
5764 5769 5774 5779 5783 5788 5792 5796 5800 5803 5806 5810 5813 5816 5819 5822 5825 5828 5830 5832 5835 5837 5839 5841 5843 5844 5846 5847 5848 5849 5850 5851 5852 5852 5853 5853 5854 5854 5854 5854 5854 5853 5853
5754 5759 5764 5770 5774 5779 5783 5788 5792 5796 5799 5803 5806 5810 5813 5816 5819 5822 5825 5827 5829 5832 5834 5836 5838 5839 5841 5842 5843 5845 5845 5846 5847 5848 5848 5849 5849 5849 5849 5849 5849 5849 5849
5744 5749 5754 5759 5765 5770 5774 5779 5783 5788 5792 5795 5799 5803 5806 5809 5813 5816 5819 5821 5823 5826 5828 5830 5832 5834 5836 5837 5838 5839 5841 5842 5842 5843 5843 5844 5844 5844 5844 5845 5844 5844 5844
5732 5738 5744 5749 5754 5760 5765 5770 5775 5779 5783 5787 5791 5795 5799 5802 5805 5809 5812 5814 5817 5820 5822 5824 5826 5828 5830 5832 5833 5834 5835 5836 5837 5838 5838 5839 5839 5839 5839 5839 5839 5839 5839
5721 5727 5733 5739 5744 5750 5755 5760 5765 5770 5774 5779 5783 5787 5791 5794 5798 5802 5805 5808 5810 5813 5816 5818 5820 5822 5824 5826 5827 5829 5830 5831 5832 5832 5833 5833 5833 5833 5834 5834 5834 5833 5833
5709 5715 5722 5727 5734 5739 5745 5750 5755 5760 5765 5770 5774 5778 5783 5787 5790 5794 5797 5800 5803 5806 5809 5811 5814 5816 5818 5819 5821 5823 5824 5825 5826 5826 5827 5828 5828 5828 5828 5828 5828 5828 5827
5697 5704 5710 5716 5722 5728 5734 5740 5746 5751 5757 5761 5766 5770 5774 5778 5782 5785 5789 5792 5795 5798 5801 5804 5806 5809 5811 5813 5814 5816 5817 5818 5819 5820 5821 5821 5822 5822 5822 5822 5822 5821 5821
5685 5692 5698 5705 5711 5717 5724 5730 5735 5741 5746 5751 5756 5761 5766 5770 5774 5777 5781 5784 5787 5790 5793 5796 5798 5801 5804 5806 5807 5809 5810 5811 5813 5814 5814 5815 5815 5815 5815 5815 5815 5815 5815
5672 5679 5686 5693 5700 5706 5712 5719 5725 5730 5736 5741 5746 5751 5756 5761 5765 5769 5772 5776 5779 5782 5785 5788 5790 5793 5796 5798 5800 5801 5803 5804 5805 5806 5807 5808 5808 5809 5809 5809 5809 5808 5808